This is the latest recevied weather packets stored in our database for station/object K0SNA. If no packets are shown the sender has not sent any weather packets the latest 10 day(s).
| Time | Temp. | Humidity | Pressure | Rain* | Wind** | Luminosity | Snow |
|---|---|---|---|---|---|---|---|
| 1778100835 | 6.67° C | 51% | 1016.7 hPa | 0 mm | - | 187 W/m² | - |
| 1778100532 | 6.67° C | 51% | 1016.9 hPa | 0 mm | - | 208 W/m² | - |
| 1778100230 | 6.67° C | 51% | 1016.8 hPa | 0 mm | - | 213 W/m² | - |
| 1778099927 | 6.67° C | 51% | 1016.7 hPa | 0 mm | - | 210 W/m² | - |
| 1778099624 | 6.11° C | 52% | 1016.8 hPa | 0 mm | - | 214 W/m² | - |
| 1778099321 | 6.67° C | 51% | 1016.8 hPa | 0 mm | - | 302 W/m² | - |
| 1778099018 | 6.67° C | 51% | 1016.9 hPa | 0 mm | - | 268 W/m² | - |
| 1778098714 | 6.11° C | 52% | 1017 hPa | 0 mm | - | 259 W/m² | - |
| 1778098412 | 6.11° C | 51% | 1017.1 hPa | 0 mm | - | 204 W/m² | - |
| 1778098108 | 6.11° C | 52% | 1016.9 hPa | 0 mm | - | 223 W/m² | - |
| 1778097804 | 6.67° C | 50% | 1016.9 hPa | 0 mm | - | 228 W/m² | - |
| 1778097501 | 6.11° C | 52% | 1016.9 hPa | 0 mm | - | 243 W/m² | - |
| 1778097198 | 6.11° C | 51% | 1017.1 hPa | 0 mm | - | 219 W/m² | - |
| 1778096895 | 6.11° C | 52% | 1016.9 hPa | 0 mm | - | 214 W/m² | - |
| 1778096591 | 6.11° C | 51% | 1017.2 hPa | 0 mm | - | 247 W/m² | - |
| 1778096289 | 5.56° C | 51% | 1017 hPa | 0 mm | - | 235 W/m² | - |
| 1778095986 | 5.56° C | 52% | 1017 hPa | 0 mm | - | 223 W/m² | - |
| 1778095682 | 5.56° C | 52% | 1016.9 hPa | 0 mm | - | 193 W/m² | - |
| 1778095379 | 5.56° C | 53% | 1016.9 hPa | 0 mm | - | 169 W/m² | - |
| 1778095076 | 5.56° C | 52% | 1017 hPa | 0 mm | - | 196 W/m² | - |
| 1778094772 | 5.56° C | 53% | 1017.1 hPa | 0 mm | - | 185 W/m² | - |
| 1778094469 | 5.56° C | 53% | 1017 hPa | 0 mm | - | 161 W/m² | - |
| 1778094166 | 6.11° C | 51% | 1017 hPa | 0 mm | - | 169 W/m² | - |
| 1778093863 | 5.56° C | 52% | 1016.9 hPa | 0 mm | - | 188 W/m² | - |
| 1778093559 | 6.11° C | 51% | 1017 hPa | 0 mm | - | 224 W/m² | - |
* Rain latest hour (hover to see other rain measurements)
** Current wind speed in m/s (hover to see current wind gust speed)